This is the latest recevied weather packets stored in our database for station/object N7NIP. If no packets are shown the sender has not sent any weather packets the latest 10 day(s).
| Time | Temp. | Humidity | Pressure | Rain* | Wind** | Luminosity | Snow |
|---|---|---|---|---|---|---|---|
| 1777883252 | 10.56° C | 88% | 1023.9 hPa | 0 mm | - | 0 W/m² | - |
| 1777882949 | 10.56° C | 90% | 1024 hPa | 0 mm | - | 0 W/m² | - |
| 1777882646 | 10.56° C | 88% | 1024 hPa | 0 mm | - | 0 W/m² | - |
| 1777882342 | 10.56° C | 86% | 1023.9 hPa | 0 mm | - | 0 W/m² | - |
| 1777882038 | 11.67° C | 84% | 1023.9 hPa | 0 mm | - | 0 W/m² | - |
| 1777881735 | 11.67° C | 83% | 1023.8 hPa | 0 mm | - | 0 W/m² | - |
| 1777881432 | 11.67° C | 82% | 1023.9 hPa | 0 mm | - | 0 W/m² | - |
| 1777881129 | 11.67° C | 82% | 1023.8 hPa | 0 mm | - | 0 W/m² | - |
| 1777880827 | 11.67° C | 83% | 1024 hPa | 0 mm | - | 0 W/m² | - |
| 1777880524 | 11.67° C | 82% | 1024 hPa | 0 mm | - | 0 W/m² | - |
| 1777880223 | 12.22° C | 79% | 1024.1 hPa | 0 mm | - | 0 W/m² | - |
| 1777879921 | 12.22° C | 79% | 1023.8 hPa | 0 mm | - | 0 W/m² | - |
| 1777879619 | 12.22° C | 79% | 1024 hPa | 0 mm | - | 0 W/m² | - |
| 1777879315 | 12.22° C | 79% | 1024 hPa | 0 mm | - | 0 W/m² | - |
| 1777879012 | 12.22° C | 78% | 1024 hPa | 0 mm | - | 0 W/m² | - |
| 1777878709 | 12.22° C | 77% | 1024 hPa | 0 mm | - | 0 W/m² | - |
| 1777878407 | 12.22° C | 77% | 1024.1 hPa | 0 mm | - | 0 W/m² | - |
| 1777878103 | 12.22° C | 76% | 1024.2 hPa | 0 mm | - | 0 W/m² | - |
| 1777877798 | 12.78° C | 75% | 1024 hPa | 0 mm | - | 0 W/m² | - |
| 1777877497 | 12.78° C | 75% | 1023.8 hPa | 0 mm | - | 0 W/m² | - |
| 1777877193 | 12.78° C | 74% | 1023.7 hPa | 0 mm | - | 0 W/m² | - |
| 1777876890 | 12.78° C | 74% | 1024 hPa | 0 mm | - | 0 W/m² | - |
| 1777876588 | 12.78° C | 73% | 1024 hPa | 0 mm | - | 0 W/m² | - |
| 1777876286 | 12.78° C | 71% | 1023.8 hPa | 0 mm | - | 0 W/m² | - |
| 1777875981 | 12.78° C | 69% | 1023.7 hPa | 0 mm | - | 0 W/m² | - |
* Rain latest hour (hover to see other rain measurements)
** Current wind speed in m/s (hover to see current wind gust speed)